Weather History for Maple Lake, MN

Change the Weather History Date:

Sunday, July 28, 2013

  Actual Average (KSTC) Record (KSTC)
Temperature  
Mean Temperature 60 °F 70 °F  
Max Temperature 73 °F 82 °F 100 °F (1917)
Min Temperature 47 °F 58 °F 43 °F (2013)
Degree Days  
Heating Degree Days 5 1  
Month to date heating degree days 14  
Since 1 June heating degree days 92  
Since 1 July heating degree days 14  
Cooling Degree Days 0 6  
Month to date cooling degree days 167  
Year to date cooling degree days 287  
Since 1 June cooling degree days 262  
Growing Degree Days 10 (Base 50)    
Moisture  
Dew Point 50 °F    
Average Humidity 73    
Maximum Humidity 96    
Minimum Humidity 50    
Precipitation  
Precipitation 0.00 in 0.09 in 1.17 in (1942)
Month to date precipitation 2.99  
Year to date precipitation 15.47  
Snow  
Snow 0.00 in 0.00 in 0.00 in ()
Month to date snowfall 0.0  
Since 1 June snowfall 0.0  
Since 1 July snowfall 0.0  
Snow Depth -    
Sea Level Pressure  
Sea Level Pressure 30.02 in    
Wind  
Wind Speed 6 mph (NNW)    
Max Wind Speed 13 mph    
Max Gust Speed 18 mph    
Visibility 10 miles    
Events      
T = Trace of Precipitation, MM = Missing Value Source: NWS Daily Summary

Daily Weather History Graph

Daily Weather History Graph

Search for Another Location

Airport:

Trip Planner

Search our weather history database for the weather conditions in past years. The results will help you decide how hot, cold, wet, or windy it might be!

Date:

Astronomy

Jul. 28, 2013 Rise Set
Actual Time 5:56 AM CDT 8:47 PM CDT
Civil Twilight 5:21 AM CDT 9:22 PM CDT
Nautical Twilight 4:38 AM CDT 10:05 PM CDT
Astronomical Twilight 3:46 AM CDT 10:56 PM CDT
Moon 11:46 PM CDT (7/28) 1:01 PM CDT (7/28)
Length of Visible Light 16h 00m
Length of Day
14h 51m
Waning Gibbous, 60% of the Moon is Illuminated
Jul 28
Waning Gibbous
Jul 29
Last Quarter
Aug 6
New
Aug 14
First Quarter
Aug 20
Full

Hourly Weather History & Observations

Time (CDT) Temp. Dew Point Humidity Pressure Visibility Wind Dir Wind Speed Gust Speed Precip Events Conditions
12:16 AM 55.4 °F 45.5 °F 69% 30.01 in 10.0 mi NNW 9.2 mph - N/A   Overcast
12:36 AM 54.7 °F 45.7 °F 72% 30.01 in 10.0 mi NNW 8.1 mph - N/A   Overcast
12:56 AM 54.9 °F 45.7 °F 71% 30.00 in 10.0 mi NNW 10.4 mph - N/A   Overcast
1:16 AM 54.0 °F 45.7 °F 74% 30.00 in 10.0 mi NW 8.1 mph - N/A   Mostly Cloudy
1:36 AM 54.0 °F 45.9 °F 74% 30.00 in 10.0 mi NNW 5.8 mph - N/A   Overcast
1:56 AM 53.6 °F 45.9 °F 75% 30.00 in 10.0 mi NNW 6.9 mph - N/A   Overcast
2:16 AM 51.8 °F 45.9 °F 80% 30.00 in 10.0 mi NW 6.9 mph - N/A   Mostly Cloudy
2:36 AM 51.3 °F 45.9 °F 82% 30.01 in 10.0 mi NW 5.8 mph - N/A   Scattered Clouds
2:56 AM 50.9 °F 46.2 °F 84% 30.00 in 10.0 mi NNW 6.9 mph - N/A   Mostly Cloudy
3:16 AM 50.9 °F 46.0 °F 83% 30.00 in 10.0 mi NW 8.1 mph - N/A   Scattered Clouds
3:37 AM 50.7 °F 46.4 °F 85% 30.00 in 10.0 mi NW 5.8 mph - N/A   Clear
3:56 AM 49.8 °F 46.0 °F 87% 30.00 in 10.0 mi NNW 4.6 mph - N/A   Clear
4:16 AM 49.1 °F 45.9 °F 89% 30.00 in 10.0 mi NNW 4.6 mph - N/A   Clear
4:36 AM 48.6 °F 45.5 °F 89% 30.00 in 10.0 mi NNW 3.5 mph - N/A   Clear
4:56 AM 48.2 °F 45.5 °F 90% 30.01 in 10.0 mi WNW 3.5 mph - N/A   Clear
5:16 AM 47.7 °F 45.5 °F 92% 30.01 in 10.0 mi NW 4.6 mph - N/A   Clear
5:36 AM 47.8 °F 45.7 °F 92% 30.01 in 10.0 mi NNW 4.6 mph - N/A   Clear
5:56 AM 48.2 °F 45.7 °F 91% 30.01 in 10.0 mi NNW 4.6 mph - N/A   Clear
6:16 AM 47.8 °F 45.7 °F 92% 30.01 in 10.0 mi NNW 4.6 mph - N/A   Clear
6:36 AM 48.2 °F 45.9 °F 92% 30.01 in 10.0 mi NW 4.6 mph - N/A   Clear
6:56 AM 49.3 °F 46.8 °F 91% 30.02 in 10.0 mi NNW 5.8 mph - N/A   Clear
7:16 AM 50.0 °F 47.1 °F 90% 30.02 in 10.0 mi NNW 4.6 mph - N/A   Clear
7:36 AM 51.1 °F 47.7 °F 88% 30.03 in 10.0 mi NNW 5.8 mph - N/A   Mostly Cloudy
7:56 AM 52.9 °F 47.8 °F 83% 30.02 in 10.0 mi NNW 4.6 mph - N/A   Scattered Clouds
8:16 AM 54.3 °F 48.0 °F 79% 30.02 in 10.0 mi NNW 5.8 mph - N/A   Clear
8:37 AM 54.9 °F 48.0 °F 78% 30.02 in 10.0 mi NW 9.2 mph - N/A   Scattered Clouds
8:56 AM 56.5 °F 49.1 °F 76% 30.02 in 10.0 mi NNW 10.4 mph - N/A   Scattered Clouds
9:16 AM 57.9 °F 48.9 °F 72% 30.02 in 10.0 mi NNW 11.5 mph 18.4 mph N/A   Clear
9:36 AM 57.7 °F 48.7 °F 72% 30.02 in 10.0 mi North 12.7 mph - N/A   Scattered Clouds
9:56 AM 59.9 °F 49.3 °F 68% 30.02 in 10.0 mi North 11.5 mph 16.1 mph N/A   Scattered Clouds
10:16 AM 60.6 °F 49.5 °F 67% 30.02 in 10.0 mi North 10.4 mph 17.3 mph N/A   Scattered Clouds
10:36 AM 61.3 °F 50.9 °F 69% 30.01 in 10.0 mi North 6.9 mph - N/A   Clear
10:56 AM 62.4 °F 50.7 °F 66% 30.02 in 10.0 mi NNW 6.9 mph - N/A   Clear
11:16 AM 63.5 °F 51.4 °F 65% 30.02 in 10.0 mi North 6.9 mph - N/A   Clear
11:36 AM 63.9 °F 50.9 °F 63% 30.02 in 10.0 mi NNW 5.8 mph - N/A   Clear
11:56 AM 64.8 °F 52.2 °F 64% 30.02 in 10.0 mi North 9.2 mph - N/A   Scattered Clouds
12:16 PM 66.0 °F 52.2 °F 61% 30.02 in 10.0 mi WNW 6.9 mph - N/A   Scattered Clouds
12:36 PM 66.4 °F 52.3 °F 61% 30.02 in 10.0 mi NNW 6.9 mph - N/A   Scattered Clouds
12:56 PM 67.6 °F 52.9 °F 59% 30.02 in 10.0 mi NW 8.1 mph - N/A   Clear
1:16 PM 68.5 °F 53.8 °F 59% 30.02 in 10.0 mi NW 6.9 mph - N/A   Scattered Clouds
1:36 PM 67.6 °F 52.9 °F 59% 30.02 in 10.0 mi NW 8.1 mph - N/A   Scattered Clouds
1:56 PM 68.5 °F 52.9 °F 57% 30.02 in 10.0 mi WNW 8.1 mph - N/A   Scattered Clouds
2:16 PM 69.1 °F 53.6 °F 58% 30.02 in 10.0 mi North 6.9 mph - N/A   Mostly Cloudy
2:36 PM 69.4 °F 53.1 °F 56% 30.02 in 10.0 mi NNW 8.1 mph - N/A   Mostly Cloudy
2:56 PM 69.3 °F 53.1 °F 56% 30.02 in 10.0 mi North 5.8 mph - N/A   Mostly Cloudy
3:16 PM 71.8 °F 53.1 °F 52% 30.02 in 10.0 mi North 4.6 mph - N/A   Scattered Clouds
3:36 PM 70.2 °F 53.4 °F 55% 30.02 in 10.0 mi North 5.8 mph 9.2 mph N/A   Mostly Cloudy
3:56 PM 72.5 °F 54.1 °F 52% 30.01 in 10.0 mi North 8.1 mph - N/A   Mostly Cloudy
4:16 PM 73.0 °F 53.4 °F 50% 30.01 in 10.0 mi NNE 5.8 mph - N/A   Overcast
4:36 PM 72.9 °F 53.8 °F 51% 30.01 in 10.0 mi North 3.5 mph - N/A   Scattered Clouds
4:56 PM 72.1 °F 53.6 °F 52% 30.01 in 10.0 mi NNW 5.8 mph - N/A   Mostly Cloudy
5:17 PM 72.7 °F 54.0 °F 52% 30.02 in 10.0 mi NE 4.6 mph - N/A   Scattered Clouds
5:36 PM 71.2 °F 54.5 °F 55% 30.02 in 10.0 mi North 6.9 mph - N/A   Scattered Clouds
5:57 PM 72.3 °F 53.4 °F 51% 30.02 in 10.0 mi North 5.8 mph - N/A   Scattered Clouds
6:16 PM 72.1 °F 53.6 °F 52% 30.02 in 10.0 mi North 6.9 mph - N/A   Clear
6:37 PM 71.8 °F 53.2 °F 52% 30.02 in 10.0 mi NNE 6.9 mph - N/A   Clear
6:56 PM 71.2 °F 53.8 °F 54% 30.03 in 10.0 mi North 4.6 mph - N/A   Clear
7:16 PM 71.1 °F 54.0 °F 55% 30.03 in 10.0 mi North 4.6 mph - N/A   Clear
7:36 PM 70.2 °F 54.0 °F 56% 30.03 in 10.0 mi NE 3.5 mph - N/A   Clear
7:56 PM 68.2 °F 54.5 °F 62% 30.04 in 10.0 mi ENE 3.5 mph - N/A   Clear
8:16 PM 66.6 °F 54.7 °F 66% 30.04 in 10.0 mi NE 3.5 mph - N/A   Clear
8:36 PM 63.9 °F 55.6 °F 74% 30.05 in 10.0 mi Calm Calm - N/A   Clear
8:56 PM 60.6 °F 56.1 °F 85% 30.05 in 10.0 mi Calm Calm - N/A   Clear
9:16 PM 59.9 °F 55.2 °F 84% 30.05 in 10.0 mi Calm Calm - N/A   Clear
9:36 PM 58.1 °F 55.0 °F 90% 30.06 in 7.0 mi Calm Calm - N/A   Clear
9:56 PM 57.4 °F 55.0 °F 92% 30.06 in 10.0 mi Calm Calm - N/A   Clear
10:16 PM 55.8 °F 54.5 °F 96% 30.07 in 10.0 mi Calm Calm - N/A   Clear
10:36 PM 55.0 °F 53.8 °F 96% 30.07 in 10.0 mi Calm Calm - N/A   Clear
10:56 PM 55.0 °F 53.2 °F 94% 30.08 in 10.0 mi Calm Calm - N/A   Clear
11:16 PM 53.8 °F 52.2 °F 94% 30.08 in 10.0 mi Calm Calm - N/A   Clear
11:36 PM 53.2 °F 52.0 °F 95% 30.08 in 10.0 mi Calm Calm - N/A   Clear
11:56 PM 53.1 °F 52.0 °F 96% 30.09 in 10.0 mi Calm Calm - N/A   Clear